www.pogodaiklimat.ru

Погода и климат >> Архив погоды >> Алжир >> Роуд-Ноусс


ПОГОДА в Роуд-Ноусс

  • Прогноз погоды в Роуд-Ноусс
  • Монитор погоды в Роуд-Ноусс

АРХИВ ПОГОДЫ в Роуд-Ноусс

Время (UTC), дата Ветер
(напр.,м/с)
 
Видим.   Явления Облачность Т
(С)
Тd
(С)
f
(%)
Тe
(С)
Тes
(С)
Комфортность P
(гПа)
Po
(гПа)
Тmin
(С)
Tmax
(С)
R
(мм)
R24
(мм)
S
(см)
18 12.06 0 5000 м ясно +42.0 +6.7 12 1004.1 976.9 +44.0
06 13.06 0 3000 м мгла ясно +32.5 +6.1 19 1009.7 981.5 +32.5
09 13.06 0 4000 м пыльный позёмок 8/4 1200 м
[Cu med, cong Ac trans]
+39.7 +10.5 17 1010.6 983.1
12 13.06 0 4000 м пыльный позёмок 8/4 1200 м
[Cu med, cong Ac trans]
+42.0 +8.3 13 1010.1 982.8
15 13.06 0 5000 м 8/4 1200 м
[Cu med, cong Ac trans]
+43.0 +7.2 12 1009.2 982.0
18 13.06 0 5000 м 8/4 1200 м
[Cu med, cong Ac trans]
+41.0 +6.1 12 1008.8 981.4 +43.5
06 14.06 0 6000 м 5/3 1200 м
[Cu hum Ac trans]
+33.7 +6.9 19 1009.7 981.6 +33.0
09 14.06 0 6000 м 8/4 1200 м
[Cu med, cong Ac trans]
+40.7 +4.5 11 1010.9 983.4
12 14.06 0 6000 м 5/0
[Ci sp]
+44.7 1009.9 982.8
15 14.06 0 8000 м 5/0
[Ci sp]
+45.7 1008.7 981.7
18 14.06 0 8000 м 5/0
[Ci sp]
+43.0 +6.2 11 1008.6 981.4 +46.0
06 15.06 0 7000 м 3/3 1200 м
[Cu hum]
+32.7 +5.9 19 1010.2 982.0 +31.5
09 15.06 0 8000 м 3/3 1200 м
[Cu hum]
+41.3 +5.6 11 1010.8 983.4
12 15.06 0 10 км ясно +44.7 +5.9 10 1009.9 982.8
15 15.06 0 10 км н/о +46.0 1008.1 981.2
18 15.06 0 10 км ясно +43.5 1008.1 980.9 +46.5
06 16.06 0 10 км ясно +31.0 +0.2 14 1009.8 981.5 +30.5
09 16.06 0 10 км н/о +41.0 1010.2 982.8
12 16.06 0 10 км ясно +44.7 1009.2 982.1
15 16.06 З 6 10 км ясно +45.5 +40 +44 очень
жарко
1007.1 980.1
18 16.06 З 6 10 км ясно +43.5 +38 +39 очень
жарко
1006.2 979.1 +46.3
06 17.06 штиль 0 10 км ясно +33.0 +1.8 14 +30 +32 жарко 1006.1 978.1 +32.0
09 17.06 З 7 10 км ясно +40.0 +35 +39 очень
жарко
1006.0 978.6
12 17.06 З 9 10 км ясно +43.0 +38 +40 очень
жарко
1005.2 978.1
15 17.06 З 11 10 км ясно +43.3 +38 +38 очень
жарко
1004.0 976.9
18 17.06 З 10 10 км ясно +41.5 +36 +36 очень
жарко
1004.1 976.9 +44.5
06 18.06 С 5 5000 м ясно +26.7 +15.4 50 +30 +31 душно 1008.5 979.8 +26.3
09 18.06 С 7 5000 м ясно +30.0 +13.2 36 +31 +35 жарко 1010.0 981.6
12 18.06 С 6 5000 м ясно +35.0 +14.3 29 +36 +44 очень
жарко
1009.6 981.7
15 18.06 СВ 5 5000 м ясно +39.0 +9.7 17 +37 +43 очень
жарко
1008.3 980.8
18 18.06 СВ 4 7000 м ясно +38.0 +6.2 14 +35 +36 очень
жарко
1008.0 980.4 +40.0
06 19.06 В 4 8000 м ясно +30.7 +8.1 24 +30 +31 жарко 1011.6 983.2 +29.5
09 19.06 В 7 10 км ясно +36.0 +8.8 19 +34 +38 очень
жарко
1012.3 984.4
12 19.06 В 7 10 км ясно +40.0 +7.1 14 +38 +43 очень
жарко
1011.7 984.1
15 19.06 В 6 10 км ясно +41.3 +6.4 12 +39 +43 очень
жарко
1009.8 982.4

 

Местоположение метеостанции Роуд-Ноусс (Алжир): широта 29.72 долгота 6.70 высота над уровнем моря 253 м.

В архиве по умолчанию представлена погода в Роуд-Ноусс за последнюю неделю. Архивные данные за месяц целиком и за предыдущие месяцы, начиная с января 2011 года, Вы можете получить, выбрав интересующий диапазон дат из раскрывающегося списка и нажав кнопку "Ввод!".


*Определитесь, кто Вы:
робот инопланетянин человек

Внимание! Время в таблицах - всемирное. Для получения местного времени необходимо прибавить поправку, которая равна 1 ч.

Смотрите также архив погоды в соседних городах и на ближайших метеорологических станциях:

Погода в Tin Fouye (Алжир) (166 км)
Погода в Хасси-Мессауде (Алжир) (223 км)
Погода в Гадамесе (Ливия) (274 км)
Погода в Уаргла (Алжир) (275 км)
Погода в Эль Борма (Тунис) (321 км)
Погода в Ин-Аменасе (Алжир) (340 км)
Погода в Эль-Голеа (Алжир) (380 км)
Погода в Туггурте (Алжир) (382 км)
Погода в Иллизи (Алжир) (396 км)
Погода в Гардая (Алжир) (406 км)

Пояснения к столбцам:

Ветер - указаны скорость ветра в м/с - средняя за 10 мин, порывы в срок и между сроками (в фигурных скобках) и направление, откуда дует ветер: С - северный, СВ - северо-восточный, В - восточный, ЮВ - юго-восточный, Ю - южный, ЮЗ - юго-западный, З - западный, СЗ - северо-западный.
Видимость - горизонтальная дальность видимости в метрах или километрах. При видимости от 1 до 10 км при отсутствии осадков обычно наблюдается дымка, при ухудшении видимости до 1 км и менее - туман. В сухую погоду видимость может ухудшаться дымом, пылью или мглою.
Явления - указаны атмосферные явления, наблюдавшиеся в срок или в последний час перед сроком; фигурными скобками обозначены явления, наблюдавшиеся между сроками (за 1-3 часа до срока); квадратными скобками обозначены град или гололедные отложения с указанием их диаметра в мм.
Облачность - указаны через наклонную черту общая и нижняя облачность в баллах и высота нижней границы облаков в метрах; квадратными скобками обозначены формы облаков: Ci - перистые, Cs - перисто-слоистые, Cc - перисто-кучевые, Ac - высококучевые, As - высокослоистые, Sc - слоисто-кучевые, Ns - слоисто-дождевые, Cu - кучевые, Cb - кучево-дождевые. Подробнее классификацию облаков см. в Атласе облаков (PDF).
T - Температура воздуха - температура, измеренная на высоте 2 м над землей.
Td - Температура точки росы - температура, при понижении до которой содержащийся в воздухе водяной пар достигнет насыщения.
f - Относительная влажность воздуха - влажноcть воздуха, измеренная на высоте 2 м над землей.
Te - Эффективная температура - температура, которую ощущает одетый по сезону человек в тени. Характеристика душности погоды. При расчете учитывается влияние влажности воздуха и скорости ветра на теплоощущения человека.
Tes - Эффективная температура на солнце - температура, которую ощущает человек, с поправкой на солнечный нагрев. Характеристика знойности погоды. Зависит от высоты солнца над горизонтом, облачности и скорости ветра. Ночью, в пасмурную погоду, а также при ветре 12 м/с и более поправка равна нулю.
P - Атмосферное давление - приведенное к уровню моря атмосферное давление.
Po - Атмосферное давление - измеренное на уровне метеостанции атмосферное давление.
Tmin - Минимальная температура - минимум температуры воздуха на высоте 2 м над землей.
Tmax - Максимальная температура - максимум температуры воздуха на высоте 2 м над землей.
R - Количество осадков - Количество выпавших осадков за период времени, мм. При наведении курсора мыши на число - период времени, за который выпало указанное количество осадков.
R24 - Количество осадков - Количество выпавших осадков за 24 часа, мм.
S - Снежный покров - Высота снежного покрова, см. При наведении курсора мыши на число - состояние снежного покрова и степень покрытия местности в баллах.